Wind_Speed
23 22 20 18 17 18 18 14 14 16 17 17 19 23 25 23 21 26 30 29 29 26 23 24 21 21 24 24 24 24 24 23 21 20 24 28 29 30 30 29 31 32 32 34 35 33 32 34 39 45 47 45 41 38 37 35 35 36 37 38 39 38 35 34 34 32 29 24 22 22 21 22 21 21 22 23 24 25 25 26 27 28 26 26 31
23 22 21 20 19 18 19 16 13 14 17 20 23 25 27 27 26 27 29 29 28 25 24 25 25 24 26 26 27 27 27 27 27 26 26 29 30 31 31 31 34 37 38 41 41 37 34 32 36 41 46 49 46 43 41 38 37 38 38 38 40 40 37 35 35 33 31 29 27 26 24 24 24 23 23 23 23 23 23 25 26 27 26 26 30
22 21 22 22 20 20 20 20 17 14 14 18 23 25 26 28 30 29 28 27 26 25 26 25 26 27 29 30 30 31 29 28 29 30 31 31 31 32 32 32 35 39 43 46 45 41 36 33 35 39 44 48 49 47 46 43 40 41 41 40 40 42 40 37 36 34 33 32 31 30 26 24 25 26 25 24 23 21 22 23 25 26 26 26 30
21 21 21 21 21 21 21 22 22 19 16 16 20 23 25 27 30 30 29 27 26 26 26 26 27 27 28 31 32 32 31 30 30 30 31 31 32 33 35 35 35 39 43 44 43 40 37 35 36 39 41 43 45 46 48 47 45 44 44 43 42 43 42 39 37 36 35 34 33 31 28 27 27 25 23 23 23 23 23 22 23 25 27 28 31
21 21 20 21 21 21 22 23 24 24 22 19 19 21 23 26 27 28 28 28 27 27 27 28 29 28 28 30 31 33 32 31 30 30 30 30 30 32 34 35 35 36 38 40 40 39 40 38 38 41 41 40 41 42 46 48 49 48 47 45 44 44 43 41 39 37 36 35 34 32 30 29 28 24 23 24 26 25 23 21 22 25 27 29 32
21 21 21 21 22 22 23 24 24 25 25 25 23 22 23 25 26 27 28 28 28 28 29 29 30 30 31 31 32 33 33 31 29 29 30 29 28 27 27 30 35 37 36 39 42 41 41 40 41 43 41 40 39 37 41 46 49 51 50 48 46 46 45 42 39 36 34 33 34 32 30 29 28 26 26 26 27 26 23 22 23 24 27 29 32
23 23 23 23 23 23 23 23 24 25 26 26 26 25 25 25 26 27 28 29 29 30 30 30 31 31 32 33 34 35 35 34 31 29 29 29 29 26 24 27 36 41 39 40 42 43 43 42 42 43 43 43 42 38 39 46 50 52 51 48 46 46 47 43 37 33 32 33 33 31 30 29 28 28 27 26 26 26 24 23 23 24 26 29 31
24 25 25 25 25 25 25 25 26 26 27 28 28 27 27 27 27 28 28 29 30 31 31 31 31 32 32 32 34 35 36 37 37 34 31 30 32 32 29 30 37 42 41 41 43 43 45 46 45 45 44 45 47 45 43 47 51 53 53 49 46 46 47 43 36 33 34 34 32 30 29 29 30 30 27 24 23 22 21 22 24 25 26 29 30
27 27 28 28 28 29 29 30 30 30 30 30 31 30 30 30 30 30 30 30 31 31 32 32 32 33 33 33 33 35 35 36 39 40 37 34 33 35 33 33 38 42 41 39 42 43 45 47 49 48 46 46 49 48 46 47 50 53 55 51 46 45 46 44 39 36 36 34 32 31 30 29 30 32 29 24 22 20 20 21 23 26 28 29 29
31 32 32 32 33 33 34 35 36 36 35 35 34 33 33 33 33 33 33 32 33 33 33 34 33 34 34 35 35 35 36 37 38 40 41 38 36 36 35 35 40 43 40 38 40 42 45 47 49 50 48 47 48 49 47 49 50 52 55 53 49 46 46 46 41 37 36 35 33 32 31 31 31 32 30 25 22 21 20 21 22 27 29 29 29
33 35 36 36 38 39 39 40 41 41 41 41 40 38 37 36 36 35 35 35 35 35 35 36 35 35 35 36 37 38 39 39 40 41 42 41 40 41 39 40 41 40 39 39 40 42 45 47 48 51 51 49 49 50 50 52 52 51 53 54 52 48 47 47 42 38 37 35 34 33 32 32 32 31 30 28 25 23 21 21 23 27 30 30 29
33 36 38 39 41 42 43 43 44 44 44 44 44 43 42 40 39 38 38 38 37 36 37 37 38 37 37 38 39 40 41 43 43 42 43 42 43 44 44 44 43 40 38 39 39 40 44 48 50 52 53 52 51 50 52 54 53 52 54 54 53 51 50 48 45 41 38 35 35 35 34 33 33 33 31 30 27 25 23 22 23 27 30 30 29
34 37 39 41 43 44 45 45 46 46 46 46 45 45 44 43 42 41 41 40 39 39 38 39 40 40 39 40 41 41 41 44 45 44 44 43 43 45 48 48 47 47 45 41 39 40 45 50 53 55 55 54 53 52 53 54 53 54 57 56 54 54 54 51 49 45 38 36 36 37 36 36 36 34 33 32 30 27 26 24 24 26 29 30 30
34 37 39 41 43 45 45 46 46 46 46 45 45 45 44 44 43 43 43 43 42 42 40 40 42 43 42 42 43 43 43 44 46 46 47 46 45 46 49 51 51 51 50 46 42 43 47 50 53 57 59 57 54 53 53 53 54 56 59 58 57 57 56 52 51 47 40 38 39 39 40 40 38 36 33 32 31 29 28 25 24 25 27 30 31
36 38 40 42 44 46 47 47 47 47 46 45 45 45 45 45 44 44 45 46 46 46 45 44 45 46 46 45 45 46 46 46 46 48 49 49 49 46 45 49 51 50 49 47 44 43 47 50 53 57 59 59 58 57 54 52 55 59 60 59 57 57 56 53 52 50 43 40 41 41 41 40 39 37 35 34 32 30 29 26 25 25 26 28 30
37 39 41 43 45 47 48 47 48 48 47 47 46 46 46 46 46 46 47 48 49 50 50 50 50 50 50 50 49 48 49 48 47 49 50 51 52 48 44 45 47 49 49 46 44 43 43 47 54 57 57 59 62 62 58 53 55 61 62 58 54 56 57 54 52 50 46 43 42 41 39 37 38 39 38 37 34 32 30 28 27 26 25 26 28
40 42 44 46 47 49 49 49 49 49 48 48 47 47 47 47 46 47 48 50 51 53 54 54 55 55 55 54 53 51 51 50 49 49 51 52 52 51 49 48 47 49 51 49 47 47 45 44 50 55 56 58 61 63 60 54 54 61 63 60 56 57 57 53 51 50 47 45 43 42 41 38 37 40 40 39 36 33 31 29 28 26 23 24 27
43 46 47 48 50 51 51 51 50 50 50 49 48 47 47 47 47 47 49 51 53 55 57 58 58 59 60 59 57 55 53 52 51 50 50 52 54 53 52 51 47 46 50 50 49 50 49 48 50 54 56 58 60 62 63 57 54 59 63 62 59 59 58 55 52 50 47 44 43 45 44 39 38 39 39 40 38 34 32 30 28 25 23 24 27
46 48 50 51 52 52 52 52 51 51 51 50 49 48 48 48 48 48 50 51 53 55 58 59 60 61 62 62 61 59 56 54 53 51 51 52 54 54 54 53 49 48 49 51 51 51 51 54 56 56 57 59 60 62 64 61 55 57 61 63 61 60 60 59 56 52 48 45 46 48 46 42 40 39 39 40 39 35 32 29 28 26 25 25 26
49 51 53 54 54 54 54 53 53 53 53 53 52 50 50 50 51 51 52 53 54 56 58 59 61 62 62 62 62 61 59 57 55 53 52 52 53 53 54 54 54 53 52 52 54 55 53 55 59 59 56 60 63 63 65 64 59 58 61 65 65 62 62 64 61 55 50 49 51 53 50 46 42 40 40 40 39 37 33 30 29 27 26 25 25
52 54 56 56 56 56 56 56 56 55 55 55 54 53 53 53 54 54 54 55 56 58 59 60 61 61 62 62 62 61 60 59 57 55 54 53 53 53 54 55 55 54 52 52 54 55 54 53 57 59 57 59 63 65 66 66 63 60 61 66 68 65 64 67 66 61 54 52 55 56 52 48 45 43 41 40 40 39 36 33 31 28 26 26 26
54 56 58 59 59 59 59 60 59 59 58 58 58 57 56 56 57 57 58 58 59 61 61 62 62 61 61 60 60 59 58 58 57 55 54 53 53 53 53 54 55 53 52 53 54 55 55 52 53 58 59 60 63 65 66 66 64 63 63 66 69 67 66 69 68 63 58 56 57 57 53 50 48 43 39 38 39 39 36 35 32 29 28 28 29
56 58 61 62 62 62 62 62 62 62 61 61 61 60 59 60 60 61 61 62 62 63 64 64 64 62 60 60 59 58 56 55 55 55 54 53 52 53 53 53 54 54 52 53 55 55 55 53 53 57 58 59 64 66 67 67 65 64 65 67 69 68 67 69 68 63 59 58 59 58 54 51 49 45 38 36 38 38 36 36 34 32 30 29 30
58 60 62 64 64 64 64 63 63 63 63 63 63 62 62 63 63 64 64 65 65 66 67 67 66 63 61 59 58 57 55 54 53 53 52 52 52 52 52 52 53 53 52 53 56 56 56 54 53 56 57 57 63 67 68 68 66 64 63 66 70 69 67 67 66 63 61 60 60 59 56 53 51 47 40 36 37 37 36 36 36 35 33 32 32
60 61 63 64 64 65 65 64 64 64 64 64 65 65 65 65 66 66 67 67 68 69 69 68 67 64 62 59 58 56 54 52 51 51 50 50 50 51 51 50 51 52 52 53 55 56 56 54 53 55 56 56 61 66 68 69 69 67 64 64 68 70 69 67 65 63 63 62 61 60 57 54 51 48 43 39 39 38 35 35 35 35 34 34 33
61 62 63 64 64 64 64 64 64 65 65 66 66 67 67 68 68 68 68 69 70 70 70 69 67 64 62 60 57 55 53 51 49 48 48 47 48 49 49 49 49 50 50 52 54 55 55 54 54 56 57 56 59 65 68 68 70 70 67 66 68 69 70 69 66 65 65 63 62 61 59 55 53 51 48 44 42 39 35 34 35 35 34 34 34
62 63 64 64 64 64 63 63 65 65 66 67 68 68 69 69 69 69 70 71 71 72 71 69 66 63 61 60 57 54 51 49 47 46 45 45 46 47 48 47 48 48 49 51 54 55 55 54 55 57 59 58 60 65 69 70 70 72 71 68 68 69 69 69 67 67 68 65 63 61 60 57 55 55 53 49 45 41 37 36 37 36 36 35 33
63 64 65 64 64 64 63 64 66 67 67 68 69 70 70 70 70 71 72 73 73 73 71 68 65 62 59 59 57 53 49 47 45 43 43 43 44 46 46 46 47 47 48 51 54 56 56 56 56 57 59 61 61 65 70 72 72 73 73 71 70 70 70 70 69 67 67 67 65 63 62 62 60 58 57 54 50 46 43 42 41 40 39 36 33
64 65 66 65 65 65 65 66 68 69 70 70 71 72 72 72 72 73 74 75 76 75 72 67 63 59 56 56 56 52 47 45 43 41 41 42 43 44 44 45 46 46 47 51 55 57 57 57 57 58 59 60 61 63 69 73 74 74 75 74 72 72 72 72 72 71 69 70 70 68 66 66 64 62 60 57 54 52 50 47 47 46 43 38 34
65 67 67 66 66 66 67 68 70 71 71 72 73 75 75 75 75 76 76 78 78 76 72 66 61 57 54 54 54 51 46 43 41 39 39 40 42 43 43 44 45 47 49 53 56 57 58 57 58 60 60 59 60 62 66 72 74 74 76 79 78 75 73 72 72 72 72 72 73 72 69 67 66 65 62 61 59 58 55 52 51 50 48 43 37
67 67 68 68 69 69 69 70 71 72 72 74 76 77 77 77 78 78 79 80 80 77 72 65 60 57 53 52 52 50 44 41 40 39 38 39 40 41 43 44 45 48 51 54 56 58 58 57 57 59 60 59 60 60 62 67 73 73 75 78 80 79 76 71 69 69 70 72 72 71 70 68 68 66 65 64 63 61 58 54 53 54 53 48 39
68 68 69 70 71 71 71 72 73 73 74 76 77 78 78 79 79 81 82 82 81 77 70 64 60 57 53 50 49 48 44 40 39 38 37 37 39 41 42 44 47 50 53 55 57 58 58 57 56 57 60 60 60 59 58 61 68 72 74 75 78 79 77 73 70 67 67 69 69 68 69 71 71 68 65 65 65 63 59 56 55 57 57 52 43
70 70 70 72 72 73 74 75 75 75 76 77 78 79 80 80 81 83 84 84 81 75 68 62 58 56 52 47 45 45 42 39 37 37 36 36 37 40 42 45 48 52 55 56 57 58 57 56 55 56 59 60 61 61 59 58 62 66 71 74 75 75 74 73 70 67 65 66 67 67 68 72 74 71 67 65 66 63 60 58 58 58 57 54 47
72 72 72 73 73 74 75 76 76 77 78 78 79 80 81 81 83 84 85 84 79 73 66 61 56 54 51 45 41 41 40 38 36 35 35 35 36 39 43 46 51 54 55 56 57 57 56 55 55 56 58 59 60 61 60 59 60 60 63 68 72 73 74 72 69 67 65 65 67 68 68 70 72 71 69 67 66 64 61 60 60 57 56 54 50
74 74 74 74 75 75 76 77 77 78 79 79 80 80 81 82 84 85 85 83 78 71 65 60 56 53 49 44 39 38 38 37 35 33 33 34 36 39 43 48 53 55 56 56 57 56 55 54 54 55 56 57 58 60 59 60 61 60 58 61 66 71 73 72 70 69 67 65 66 69 70 70 69 69 68 67 67 65 62 62 61 58 56 55 51
76 77 77 76 76 77 78 79 79 80 81 81 81 81 81 83 85 86 85 82 76 70 65 60 55 52 50 45 40 37 37 36 34 32 32 33 35 40 45 50 55 57 57 57 57 56 55 54 53 53 54 54 55 56 56 58 61 62 61 59 60 65 69 70 70 71 70 68 65 66 68 70 70 69 66 65 66 65 63 63 62 60 58 56 53
77 78 78 78 78 78 79 80 81 83 84 84 84 83 84 85 87 88 86 81 75 69 64 60 56 52 49 46 41 38 36 35 33 32 32 33 36 40 46 52 56 59 59 58 57 56 54 53 52 52 52 52 52 51 52 54 57 61 62 59 58 62 66 67 66 68 69 67 64 63 65 67 69 69 66 64 64 64 64 63 62 62 60 58 56
76 77 79 79 79 80 81 82 83 84 85 86 86 86 87 87 89 89 87 81 74 68 63 59 56 51 48 46 42 37 35 34 33 31 32 34 37 42 47 53 58 59 59 58 57 55 54 52 51 50 50 50 49 48 48 48 51 56 59 59 59 62 66 67 66 65 66 65 63 63 63 65 68 69 66 63 63 64 65 63 62 62 61 59 59
75 77 79 81 81 81 81 83 84 85 86 86 87 88 88 89 90 90 86 80 73 67 62 58 56 52 49 47 43 37 34 33 32 31 32 35 38 43 48 53 58 59 59 58 58 56 54 52 50 49 48 48 46 45 45 45 46 49 53 57 61 63 65 68 68 67 67 65 64 64 64 65 69 68 65 63 64 65 66 65 64 63 62 60 60
75 76 79 81 81 81 81 83 84 85 85 86 87 88 89 90 90 88 84 77 71 66 61 58 56 53 51 48 43 37 33 32 31 31 33 35 40 44 47 52 57 59 59 59 59 58 57 54 51 49 48 48 46 44 44 44 42 44 49 55 61 63 65 70 73 71 69 67 65 65 64 65 66 66 64 64 66 67 67 67 66 65 63 62 61
76 77 79 81 81 81 82 83 84 85 86 86 87 89 91 91 89 85 80 74 69 65 61 57 55 54 51 48 43 37 33 31 30 31 33 36 41 45 47 50 55 58 59 60 59 59 59 57 54 50 49 48 47 45 45 44 41 42 48 54 59 64 67 72 76 75 72 71 69 66 64 64 65 66 65 65 66 68 68 68 66 65 64 63 61
77 78 80 82 82 82 84 85 86 87 88 88 88 89 91 90 87 82 77 71 66 63 59 55 53 53 51 48 43 38 34 31 29 30 34 37 41 45 48 50 55 58 59 59 59 58 59 58 56 53 50 49 48 47 47 45 43 43 47 51 57 64 69 74 77 76 75 74 72 69 67 66 67 67 65 64 64 66 67 68 67 64 63 63 63
79 80 81 83 84 84 86 87 88 89 90 89 89 89 89 87 83 78 74 69 65 61 56 52 51 51 50 47 43 39 35 31 29 29 33 38 41 46 50 52 55 57 58 59 59 58 59 59 58 56 53 51 49 48 48 47 45 45 48 51 57 64 69 74 77 77 77 77 75 72 71 70 70 69 67 66 65 64 63 65 64 62 61 62 63
81 82 83 84 85 86 88 89 90 91 92 91 90 88 87 84 79 75 72 68 63 57 52 48 48 49 48 46 42 38 34 31 30 29 32 37 41 46 51 53 55 57 58 59 59 58 59 60 60 58 56 54 51 50 50 50 48 47 50 54 58 64 70 74 78 79 79 79 78 75 73 73 72 71 70 70 68 64 61 60 60 60 61 63 65
83 84 85 86 86 87 88 90 91 93 93 92 90 88 85 82 78 74 71 67 61 55 48 45 45 46 46 45 42 38 33 31 31 30 31 36 41 45 50 54 55 57 59 59 59 59 59 60 61 60 58 56 54 53 52 52 50 49 52 56 60 64 69 74 78 81 81 82 81 78 75 75 75 73 72 71 69 64 61 59 57 58 62 65 67
86 86 86 87 87 88 89 90 92 94 94 93 91 88 83 80 76 73 70 67 61 54 47 43 43 44 44 43 41 37 33 30 31 31 30 34 41 44 48 52 55 56 58 59 58 57 58 59 60 61 60 59 56 55 55 55 53 51 53 57 61 65 68 72 77 81 83 83 84 82 79 78 77 76 75 73 69 66 64 63 61 61 63 65 68
87 88 88 89 89 90 91 92 94 96 95 93 90 87 82 78 75 72 69 65 60 54 46 42 42 42 42 40 38 35 32 30 31 32 31 33 39 44 47 51 54 56 58 60 58 57 56 57 58 60 61 61 59 57 57 57 56 54 54 57 62 66 69 71 75 80 83 85 85 83 81 80 79 79 78 76 73 70 68 67 66 67 68 68 68
88 89 89 90 91 92 92 93 95 96 95 92 89 85 80 76 73 70 67 63 59 52 45 41 41 42 40 38 36 33 31 30 30 31 32 32 36 42 46 49 53 56 58 60 60 58 56 55 56 58 60 61 60 59 59 59 59 57 56 57 61 66 69 71 73 77 81 84 86 85 84 82 81 81 81 80 77 75 73 72 71 72 73 74 73
90 90 91 91 92 93 93 94 95 96 94 90 86 82 77 73 70 67 64 61 56 50 45 41 41 41 39 36 34 31 30 30 30 30 31 32 34 39 43 47 52 56 58 61 62 60 57 55 55 57 59 60 60 60 60 61 61 60 58 59 61 65 69 72 74 76 78 81 84 86 86 85 84 83 83 82 82 80 78 77 77 76 77 79 80
92 92 93 93 93 94 94 95 95 95 92 88 84 79 74 70 66 64 61 58 54 49 44 41 40 40 39 36 32 30 29 29 29 29 30 31 32 35 40 44 49 54 58 61 63 63 59 56 55 56 58 60 61 61 61 62 63 62 61 61 62 64 67 71 74 76 78 79 81 83 84 85 86 86 85 84 84 84 83 82 82 81 81 83 84
93 94 94 95 95 95 96 95 94 92 90 86 81 77 72 67 63 60 58 55 51 47 43 41 39 38 38 36 32 30 29 29 29 29 29 30 32 33 36 40 45 50 55 59 63 64 63 60 57 56 57 59 61 62 62 64 64 63 62 62 63 65 67 69 72 75 78 80 81 82 82 83 85 86 87 86 86 87 87 87 87 86 85 86 87
Wind_Direction
321 324 327 329 326 319 317 316 308 300 293 279 276 283 285 285 291 300 304 305 305 304 309 316 313 304 299 297 295 293 292 285 280 273 259 254 255 256 259 262 263 258 255 255 248 235 228 225 225 226 223 222 224 224 223 225 226 224 223 222 220 219 218 217 219 221 222 221 220 221 228 230 227 226 228 231 232 231 232 234 239 246 254 247 226
323 326 329 330 327 322 316 312 303 293 292 289 283 283 285 286 289 296 301 304 307 302 302 311 311 301 290 286 285 280 281 282 275 265 259 260 257 254 256 259 260 259 256 257 256 251 239 226 224 226 226 226 226 227 228 227 228 229 228 226 224 222 222 220 221 223 224 225 226 224 226 231 232 232 232 232 233 236 237 236 237 243 249 246 227
327 330 331 331 328 325 321 316 311 302 294 292 290 289 289 292 295 298 299 301 306 301 297 300 299 291 282 276 273 269 269 274 272 264 260 261 259 255 254 255 255 253 252 252 253 253 245 231 225 225 226 228 229 230 232 231 230 231 232 230 227 225 225 225 224 224 224 226 229 227 226 230 233 233 233 237 241 243 243 240 238 239 243 241 226
329 331 332 331 330 328 325 322 319 314 305 296 293 291 290 293 296 299 299 299 300 298 295 293 289 285 280 275 273 269 264 265 267 264 259 260 264 264 260 261 260 254 251 250 247 247 244 235 227 224 226 229 230 232 234 235 233 232 233 232 230 228 228 227 226 225 225 227 228 228 228 230 235 235 233 237 242 241 241 241 240 240 240 236 223
328 330 332 331 330 328 326 323 321 319 316 309 302 297 293 292 294 296 297 297 295 293 291 288 288 287 283 281 279 276 270 265 264 263 262 260 263 267 266 267 266 260 254 248 244 244 242 236 227 225 229 231 232 235 237 237 235 234 234 233 231 231 229 227 226 225 225 225 228 231 232 234 240 240 233 232 235 240 245 244 241 238 235 229 219
328 328 330 329 327 326 325 323 322 320 319 316 311 305 300 297 296 296 295 295 293 291 288 286 286 285 284 282 281 281 279 274 266 262 263 263 262 262 263 267 268 262 253 247 243 241 237 234 230 227 230 232 231 235 240 239 237 235 235 233 232 231 229 227 225 224 223 224 229 234 237 239 240 240 237 236 238 246 250 245 239 235 230 223 216
327 326 326 326 323 322 321 319 319 318 316 315 312 308 304 300 297 295 294 293 292 290 288 287 286 284 282 281 281 281 282 281 277 268 263 264 265 259 249 252 258 255 250 246 241 236 232 232 232 229 228 230 230 234 241 241 238 236 235 233 231 230 228 227 225 223 223 226 229 234 238 239 238 238 241 243 245 250 252 244 237 230 225 220 215
324 323 323 322 319 317 316 314 314 314 313 311 308 306 303 300 295 292 291 290 289 289 288 288 287 286 282 280 278 277 277 278 278 276 269 266 266 263 253 245 249 251 248 244 240 235 232 231 230 230 228 229 232 236 241 241 236 235 234 233 231 229 228 226 223 221 223 226 227 231 236 238 237 237 241 244 246 250 250 243 234 226 221 218 215
324 322 321 319 316 314 313 313 312 311 311 309 307 306 304 301 297 294 291 289 287 286 286 285 285 286 285 282 278 275 273 272 272 274 273 269 266 265 263 258 256 254 250 246 240 235 232 230 229 230 230 229 231 236 239 238 234 231 232 234 233 229 227 224 219 218 222 224 224 227 231 235 236 236 239 240 242 248 251 247 236 224 220 220 218
327 323 321 318 316 316 316 316 316 316 315 313 310 309 307 304 301 299 296 293 291 289 287 285 284 283 284 283 280 276 274 271 269 270 270 267 264 263 264 264 261 255 250 249 243 234 230 229 227 229 230 228 231 237 240 236 232 229 230 234 236 232 227 223 220 219 222 224 226 227 228 231 233 235 236 237 239 245 248 246 238 226 222 224 222
325 322 322 321 320 320 321 321 321 320 319 316 314 313 311 308 305 303 300 297 296 293 290 288 286 284 283 281 279 278 277 275 272 270 269 266 264 262 259 258 257 253 248 246 241 235 232 230 229 229 229 230 233 238 240 235 229 227 229 232 235 234 229 226 225 224 225 228 230 230 230 232 233 233 234 236 238 242 242 240 238 231 225 225 226
324 322 323 324 323 323 323 323 322 320 319 318 317 316 314 312 309 306 304 301 299 297 295 291 288 285 283 282 280 279 279 278 276 273 271 268 265 260 256 254 255 255 253 246 237 236 237 235 233 232 231 233 234 236 237 233 225 223 227 229 233 234 231 227 227 227 227 231 232 232 233 234 234 233 233 236 239 242 242 237 235 232 227 226 227
324 324 324 324 324 323 323 322 321 319 318 317 316 315 314 312 310 308 306 304 302 300 297 294 291 288 286 283 281 279 278 278 278 276 273 270 265 260 257 255 255 257 259 254 245 242 241 239 236 234 234 234 234 233 234 231 224 222 226 228 229 231 230 227 227 229 230 231 233 234 235 234 233 232 232 235 239 243 245 239 233 233 230 227 227
323 322 323 322 322 322 322 321 319 318 317 315 315 314 313 311 310 309 308 306 304 302 299 296 293 290 288 285 282 280 277 276 276 275 275 273 268 263 260 259 258 257 258 258 256 249 241 238 235 234 234 234 233 232 232 230 225 223 225 224 224 228 229 226 226 231 232 230 232 234 235 235 235 234 231 233 238 243 246 242 235 235 233 230 230
320 320 320 320 321 322 322 321 320 318 317 315 314 313 312 311 311 310 310 308 306 304 302 299 296 292 290 287 285 282 279 277 275 274 274 274 272 269 264 261 260 258 256 256 258 251 240 237 236 234 233 234 234 231 230 228 224 221 221 221 222 226 228 225 225 229 232 230 231 233 234 233 234 235 232 233 238 242 246 244 239 237 235 233 233
317 317 319 321 323 324 323 322 321 320 319 317 316 315 314 313 312 312 310 309 307 306 305 303 300 296 293 290 287 285 282 280 277 275 275 274 275 274 269 262 259 258 256 254 253 249 241 238 238 237 234 232 233 231 227 224 221 220 220 220 221 224 225 223 222 226 229 228 229 232 232 229 232 234 234 234 238 242 245 244 242 239 236 235 235
317 318 320 323 325 325 324 323 323 322 320 319 317 316 315 313 312 311 310 309 308 307 306 304 302 300 297 294 290 287 285 283 279 276 275 274 274 274 270 265 261 255 250 250 251 249 244 239 238 239 234 228 229 231 226 221 219 220 220 220 220 220 221 220 219 222 226 228 230 232 231 228 231 234 235 235 238 241 243 243 242 240 236 236 236
319 321 322 325 326 326 325 324 324 322 321 319 317 316 314 312 311 310 309 309 308 307 305 304 303 301 299 296 294 291 288 285 283 279 276 274 273 272 270 268 263 250 243 245 248 246 244 241 237 237 233 225 224 228 227 222 220 221 220 219 218 217 217 217 216 220 224 227 231 234 233 230 230 234 236 236 238 239 240 241 241 238 235 235 235
321 321 323 325 326 326 324 323 322 322 320 319 317 315 313 311 310 310 309 308 307 306 304 303 303 301 299 298 296 295 292 289 285 282 278 275 273 272 270 268 262 252 246 246 246 244 244 242 239 237 233 227 223 224 225 224 221 220 219 218 217 215 214 214 215 218 222 225 229 235 236 232 230 232 235 235 236 237 237 239 240 237 234 233 233
321 321 322 324 326 325 323 322 322 322 320 319 317 315 313 312 311 311 309 309 307 306 304 303 302 300 299 298 297 295 293 291 288 284 280 277 274 272 270 268 264 258 255 252 248 246 245 242 240 240 235 229 223 221 223 224 221 220 218 217 217 215 211 212 214 216 219 222 227 232 234 233 231 230 231 231 231 233 235 238 239 236 233 230 230
319 320 321 323 324 324 323 323 323 322 320 319 317 316 315 313 312 311 310 310 309 307 306 304 302 300 299 298 296 295 293 291 289 285 282 279 275 272 269 267 264 260 257 252 249 247 244 241 239 238 235 230 223 218 219 222 222 221 218 216 216 214 210 211 213 215 217 220 225 230 231 232 232 229 226 226 227 230 233 237 239 235 231 228 225
318 319 320 322 325 325 325 324 323 322 321 320 319 318 316 315 314 313 313 313 312 310 309 307 305 303 301 298 296 294 293 291 288 286 282 279 276 272 268 266 263 260 255 250 247 245 243 241 237 233 231 228 223 217 216 218 221 221 218 216 215 212 208 209 212 216 218 219 223 227 229 231 234 232 227 224 225 229 232 236 237 232 228 227 226
317 319 321 323 326 326 326 324 323 322 321 320 319 318 317 316 316 315 315 315 314 313 312 310 308 306 303 300 297 295 293 290 288 285 282 279 276 272 268 264 261 258 254 249 246 244 242 240 235 232 230 227 221 218 216 216 218 219 218 217 214 210 207 209 213 216 217 219 221 224 227 231 234 235 232 227 227 231 233 234 234 231 229 229 232
317 319 321 324 325 325 324 323 322 321 321 320 320 320 319 318 317 316 316 316 316 316 315 313 310 308 305 301 298 295 293 290 287 284 282 279 275 272 268 263 259 256 252 247 244 242 240 238 234 231 230 227 221 218 216 214 215 216 216 216 214 210 208 210 214 215 215 216 219 222 225 229 232 234 234 231 231 233 233 232 232 232 233 234 235
317 318 320 322 323 322 321 321 321 320 320 321 321 321 320 319 318 317 317 317 318 318 316 314 312 310 307 303 299 296 294 291 287 284 281 278 274 271 267 262 257 254 250 245 242 240 238 236 233 230 229 227 222 219 218 215 214 215 215 214 213 212 210 211 215 216 213 214 218 221 223 228 231 232 231 231 233 232 231 229 230 232 234 236 236
315 317 318 320 321 320 319 320 320 320 321 322 322 321 320 319 318 317 317 318 318 318 317 315 313 311 307 303 300 297 294 291 287 283 280 277 273 270 266 262 256 252 247 242 238 236 234 232 230 228 227 226 223 220 220 218 216 216 216 215 214 214 213 214 215 216 213 212 216 220 223 226 230 230 230 231 232 231 227 226 227 230 233 235 238
314 315 316 318 319 318 318 318 319 320 321 322 321 320 320 319 318 318 318 319 319 319 318 316 313 311 307 303 300 298 295 291 287 283 278 275 272 268 265 260 255 250 244 238 233 231 229 227 227 226 224 223 222 221 220 220 219 217 216 214 213 214 215 215 214 214 213 212 215 219 222 226 229 229 229 230 230 228 226 227 229 230 234 238 241
312 313 315 317 317 316 317 318 319 320 321 321 321 319 319 319 319 319 319 320 321 320 319 316 313 310 306 302 299 298 295 291 287 282 278 274 270 267 263 258 253 248 241 235 229 226 225 224 223 223 222 221 221 221 220 220 221 220 217 215 213 214 215 214 212 213 214 213 215 218 221 225 228 228 228 230 229 227 227 230 233 235 239 240 242
311 313 315 316 316 316 318 319 319 320 320 320 320 319 319 320 321 321 321 322 322 322 320 317 313 310 305 300 298 297 295 291 286 282 277 273 270 266 262 256 251 244 236 230 227 224 223 222 220 219 219 220 220 219 219 219 220 221 219 217 215 214 214 215 214 215 217 216 216 218 220 224 227 227 228 229 228 227 228 230 233 238 240 239 240
311 313 315 317 317 317 319 320 319 319 320 320 320 320 321 322 322 322 322 323 323 323 321 318 313 309 305 300 297 296 295 290 285 280 276 272 268 265 260 253 247 239 231 227 225 224 223 222 220 218 218 219 220 219 219 218 218 220 220 219 216 213 212 214 216 217 219 219 219 219 219 222 225 226 228 229 227 226 228 229 230 236 238 236 237
311 314 316 317 317 318 320 319 318 319 320 320 320 321 322 322 323 323 324 324 324 324 322 319 314 310 306 301 297 295 294 290 283 278 273 270 266 262 256 249 242 234 228 225 223 224 224 223 221 218 217 218 219 220 220 219 217 219 220 219 218 214 212 214 218 219 219 220 221 221 222 223 225 226 229 230 227 226 228 229 229 233 236 235 235
312 315 317 318 318 318 319 318 318 320 321 321 321 321 322 323 324 324 325 325 325 324 323 319 315 311 307 303 297 294 293 290 283 276 271 267 263 258 251 244 237 231 227 223 222 223 224 224 222 219 218 218 219 220 221 220 219 220 221 220 218 215 214 215 217 218 219 220 223 225 227 227 227 229 231 230 227 227 229 229 229 232 236 237 235
314 316 318 318 318 318 318 319 320 321 321 321 321 322 322 323 325 325 325 325 325 324 323 320 316 313 310 305 298 294 292 289 283 275 268 264 258 253 246 239 233 229 225 222 221 222 222 223 223 221 219 219 219 220 220 220 221 222 223 223 219 215 213 214 215 215 218 222 225 226 228 230 230 232 233 231 228 229 229 228 228 231 236 238 235
315 316 317 317 317 318 318 319 320 320 320 321 322 322 323 324 325 326 325 326 326 324 323 321 317 313 312 309 301 296 293 289 282 273 265 259 254 248 241 235 230 228 224 222 220 220 221 222 224 223 222 221 221 221 221 221 223 223 222 222 221 216 214 214 215 216 219 222 225 227 227 229 231 233 234 231 228 228 227 227 227 230 234 237 235
315 316 316 316 317 318 318 318 319 320 320 321 321 322 323 324 325 326 325 325 326 324 322 320 318 313 311 310 305 299 294 288 281 272 263 255 248 243 236 231 229 227 224 220 219 218 219 222 223 224 224 224 224 224 224 225 227 226 223 220 219 218 217 218 220 221 221 222 225 226 226 227 230 232 232 229 227 226 226 226 227 229 232 235 236
315 315 316 316 317 318 318 318 319 319 319 319 320 322 324 325 325 326 325 325 325 324 321 319 318 313 309 307 305 301 295 289 282 273 261 250 244 238 232 228 228 227 224 220 218 218 220 221 223 225 227 228 229 229 229 230 229 229 227 223 219 218 218 219 221 223 223 224 225 225 225 226 229 229 227 226 225 225 225 225 226 227 229 233 235
315 315 315 315 316 317 318 318 318 318 318 319 321 322 324 325 326 325 325 324 323 322 320 319 317 314 309 307 305 303 297 289 282 273 261 248 239 234 230 227 228 229 225 221 219 219 219 220 222 226 229 231 233 233 232 231 230 229 228 225 222 219 217 216 218 220 222 223 224 224 225 227 227 226 224 223 223 223 224 225 225 226 227 229 233
314 314 314 314 315 317 317 317 317 317 317 319 321 322 324 324 325 325 324 323 322 321 320 318 315 313 310 307 307 304 298 290 282 272 261 248 237 231 229 227 229 231 228 224 220 219 218 220 222 226 230 233 235 235 232 229 228 229 227 226 225 221 217 216 217 219 221 222 222 223 226 227 226 223 222 221 221 222 223 224 225 227 228 228 232
312 313 314 314 314 315 316 316 316 316 317 319 320 321 322 323 323 324 323 322 320 319 319 317 313 311 309 308 307 304 298 292 283 271 259 247 237 231 229 227 229 232 231 226 222 219 217 218 221 225 229 232 234 234 231 226 226 228 227 225 224 223 219 217 219 221 221 220 221 223 226 226 224 222 222 222 221 222 225 225 226 229 230 230 232
312 313 313 312 313 314 315 315 315 316 317 318 319 321 321 322 323 323 322 321 319 319 319 316 312 310 308 307 307 304 298 292 284 270 257 245 236 231 229 228 228 231 232 230 224 220 218 219 220 223 227 229 230 231 231 227 225 226 226 223 222 222 219 217 219 221 220 219 221 223 225 226 224 223 223 224 223 225 227 228 229 231 233 233 233
311 312 312 312 313 315 315 315 315 316 317 318 320 321 321 321 322 321 320 319 318 318 318 315 311 309 308 307 306 303 297 290 282 269 256 244 236 231 229 228 227 230 233 232 228 223 220 219 220 222 226 228 228 229 231 229 225 224 224 222 221 220 219 217 218 220 220 220 221 223 225 226 225 224 224 225 226 228 230 230 230 231 233 234 234
311 312 312 313 314 315 315 315 316 317 317 319 320 321 320 321 321 320 319 318 318 317 316 313 309 307 306 306 306 303 297 289 280 267 255 244 235 229 227 227 227 229 232 233 231 225 221 219 220 221 224 227 227 228 230 230 227 223 221 220 219 218 217 217 217 219 220 221 222 223 224 225 225 225 225 227 227 228 229 229 229 230 232 233 233
311 312 313 314 315 315 316 316 317 317 318 319 321 320 320 320 319 318 317 316 317 317 314 309 306 304 304 304 304 302 296 288 279 267 254 244 235 228 226 226 227 230 232 234 232 227 221 219 219 220 223 226 227 227 229 230 229 223 218 217 217 215 215 216 217 218 220 223 224 223 224 226 226 226 228 229 229 227 226 226 226 227 228 229 231
311 312 313 314 315 316 316 316 317 317 317 319 320 319 319 318 317 316 315 315 315 316 312 307 304 303 302 302 302 300 294 285 278 268 254 245 237 230 225 225 226 229 231 234 234 230 224 220 219 220 222 225 226 227 228 230 229 225 218 215 215 215 213 215 216 217 219 223 226 225 225 226 227 228 229 230 229 226 225 225 225 226 226 226 228
311 312 313 314 315 315 315 316 316 316 317 319 319 318 317 317 316 315 314 313 314 315 310 305 303 301 300 301 300 297 292 284 277 271 257 245 239 233 228 225 225 227 230 232 234 232 227 222 219 220 222 224 225 226 227 228 228 226 220 215 215 215 214 215 216 217 219 222 225 226 226 227 228 229 228 228 228 227 225 226 227 227 226 226 228
311 312 313 314 314 314 314 315 315 315 316 318 318 317 316 315 314 314 313 312 313 314 310 305 302 301 300 301 299 294 289 283 276 271 260 245 239 235 231 228 226 225 227 230 232 232 230 225 220 220 221 223 223 225 226 226 226 226 223 218 215 215 216 216 217 218 219 221 224 225 226 227 228 229 228 227 228 228 228 228 228 227 227 227 228
311 312 313 313 313 313 314 315 314 315 316 317 316 316 315 314 313 312 312 311 312 313 310 305 303 302 301 301 299 293 287 282 276 271 262 247 238 235 233 230 228 225 224 227 229 230 230 226 221 219 220 222 222 224 225 226 225 225 224 222 218 217 217 217 218 219 220 221 223 225 225 226 228 229 228 228 228 228 229 230 231 229 227 226 227
310 311 312 312 312 313 313 314 314 314 315 316 315 315 315 313 312 311 310 310 311 311 308 305 304 303 301 301 299 293 286 283 278 271 263 250 238 234 233 231 229 227 224 225 227 228 228 227 222 218 219 220 221 222 224 225 225 224 224 224 222 220 219 219 219 220 221 222 223 225 226 226 227 229 229 230 229 229 229 230 231 231 229 227 227
309 310 310 311 311 312 312 313 313 313 314 314 314 314 313 312 310 309 308 308 309 309 307 305 305 303 301 300 299 292 284 282 279 272 263 254 241 234 233 232 231 229 226 225 226 227 227 226 222 218 218 220 221 222 222 224 225 225 225 225 225 223 222 221 221 221 222 223 224 225 226 227 228 229 229 230 230 230 230 230 231 231 231 229 229
308 309 310 310 310 311 311 312 313 313 313 313 313 312 311 309 308 307 306 306 308 307 306 306 306 304 300 299 298 292 286 282 278 269 262 257 248 237 233 232 231 231 228 226 226 228 227 225 223 219 218 219 221 222 222 222 224 225 226 226 226 225 225 224 223 222 223 224 225 226 227 227 228 229 229 230 230 231 231 230 230 231 231 231 231
308 309 309 309 310 311 311 312 312 312 312 312 312 310 308 307 306 305 303 303 304 304 304 306 308 305 301 300 298 294 289 283 277 268 260 258 255 246 237 232 232 232 231 229 228 228 228 227 224 220 218 219 222 223 223 222 223 224 225 227 228 227 226 225 225 225 224 224 225 226 227 227 228 229 230 230 231 231 231 232 232 232 232 233 233
Height
10945 10944 10944 10943 10940 10936 10935 10937 10937 10933 10930 10928 10926 10926 10926 10926 10926 10924 10921 10918 10916 10914 10911 10908 10906 10906 10905 10905 10905 10903 10902 10901 10901 10900 10900 10901 10901 10900 10898 10897 10895 10895 10894 10893 10895 10898 10898 10898 10899 10901 10905 10907 10908 10909 10911 10912 10914 10916 10917 10917 10917 10918 10919 10919 10920 10921 10923 10926 10928 10930 10930 10931 10931 10932 10931 10930 10931 10931 10932 10933 10933 10933 10933 10933 10935
10942 10941 10940 10939 10937 10935 10933 10934 10935 10934 10931 10928 10926 10925 10923 10923 10923 10922 10919 10915 10912 10910 10907 10904 10902 10902 10904 10904 10903 10900 10898 10897 10896 10897 10898 10897 10897 10896 10894 10893 10893 10892 10891 10890 10892 10895 10897 10896 10897 10899 10901 10902 10903 10905 10906 10907 10910 10912 10914 10915 10916 10916 10916 10917 10917 10918 10920 10922 10924 10926 10928 10928 10929 10930 10930 10930 10930 10930 10930 10931 10931 10930 10930 10931 10932
10940 10939 10937 10936 10934 10932 10929 10928 10930 10931 10930 10927 10924 10921 10920 10918 10916 10916 10915 10913 10909 10906 10903 10901 10900 10900 10901 10901 10900 10898 10896 10894 10893 10893 10893 10893 10892 10891 10889 10888 10888 10888 10889 10890 10892 10894 10896 10896 10895 10896 10897 10898 10899 10900 10901 10902 10905 10907 10909 10911 10912 10913 10913 10914 10914 10916 10917 10919 10921 10923 10926 10927 10927 10927 10928 10929 10930 10929 10929 10928 10928 10928 10928 10928 10930
10938 10937 10936 10934 10932 10930 10927 10925 10923 10925 10927 10925 10922 10919 10917 10914 10912 10910 10909 10908 10906 10903 10901 10900 10900 10899 10898 10896 10895 10893 10892 10891 10890 10889 10889 10889 10887 10886 10884 10882 10883 10884 10885 10887 10890 10892 10894 10894 10894 10894 10894 10894 10895 10896 10897 10898 10900 10903 10904 10905 10907 10909 10910 10911 10911 10912 10914 10916 10918 10920 10923 10923 10923 10925 10927 10928 10928 10927 10926 10925 10925 10925 10925 10926 10927
10936 10935 10935 10933 10931 10929 10926 10923 10920 10919 10919 10920 10920 10918 10915 10912 10910 10907 10905 10904 10903 10901 10899 10898 10897 10896 10895 10892 10890 10887 10886 10887 10887 10885 10884 10884 10884 10881 10879 10879 10878 10878 10880 10882 10884 10886 10888 10890 10891 10891 10891 10892 10892 10893 10893 10895 10897 10899 10900 10902 10903 10904 10905 10906 10907 10908 10911 10913 10915 10917 10919 10920 10921 10923 10924 10925 10924 10924 10924 10923 10922 10922 10922 10923 10924
10934 10933 10932 10931 10929 10928 10926 10923 10920 10917 10915 10914 10914 10914 10912 10909 10907 10905 10903 10901 10899 10898 10896 10894 10893 10892 10891 10889 10886 10883 10882 10881 10882 10880 10879 10878 10878 10878 10879 10881 10878 10874 10874 10876 10877 10878 10880 10882 10885 10887 10888 10888 10888 10890 10891 10891 10893 10895 10897 10900 10900 10900 10901 10902 10903 10905 10907 10910 10911 10914 10916 10917 10919 10920 10920 10921 10921 10922 10922 10921 10920 10920 10920 10921 10922
10932 10931 10930 10929 10928 10927 10925 10923 10920 10917 10915 10912 10910 10909 10908 10906 10904 10901 10899 10897 10895 10893 10892 10890 10889 10888 10886 10884 10882 10880 10878 10876 10875 10874 10873 10872 10871 10872 10875 10877 10873 10869 10869 10869 10869 10871 10873 10875 10878 10880 10883 10884 10884 10886 10888 10887 10889 10891 10894 10897 10897 10897 10898 10898 10900 10902 10904 10906 10907 10910 10912 10913 10915 10916 10917 10918 10919 10920 10920 10919 10919 10918 10919 10920 10921
10930 10929 10928 10927 10925 10924 10922 10921 10918 10916 10913 10911 10908 10906 10905 10903 10901 10898 10896 10894 10891 10889 10887 10885 10884 10882 10881 10879 10877 10875 10873 10871 10869 10867 10867 10867 10865 10865 10867 10868 10865 10863 10863 10864 10864 10866 10867 10870 10873 10874 10877 10879 10879 10881 10883 10882 10884 10887 10890 10892 10893 10894 10895 10896 10898 10899 10900 10901 10904 10907 10908 10909 10911 10912 10914 10915 10916 10918 10918 10918 10917 10918 10918 10918 10919
10925 10924 10924 10923 10921 10920 10918 10916 10914 10912 10910 10907 10904 10902 10899 10897 10895 10893 10891 10889 10887 10885 10883 10881 10879 10876 10874 10873 10871 10870 10868 10866 10863 10861 10861 10861 10860 10859 10860 10862 10860 10856 10857 10859 10860 10862 10864 10865 10867 10869 10871 10874 10874 10875 10877 10878 10879 10882 10885 10887 10889 10890 10892 10893 10893 10893 10894 10897 10900 10902 10903 10905 10907 10909 10910 10912 10913 10915 10916 10916 10916 10917 10916 10917 10918
10919 10918 10917 10917 10915 10913 10911 10909 10906 10905 10903 10900 10899 10897 10894 10891 10888 10886 10884 10882 10881 10879 10877 10875 10873 10871 10868 10866 10864 10862 10861 10860 10858 10856 10855 10855 10855 10854 10855 10855 10852 10850 10852 10854 10855 10857 10859 10859 10861 10864 10866 10869 10870 10870 10872 10872 10873 10877 10880 10882 10884 10887 10888 10887 10887 10887 10889 10892 10895 10897 10898 10901 10903 10905 10907 10908 10910 10912 10913 10914 10915 10915 10915 10916 10917
10916 10913 10912 10910 10907 10905 10903 10901 10898 10896 10894 10892 10891 10889 10888 10886 10883 10880 10878 10876 10874 10872 10869 10867 10866 10864 10861 10859 10857 10855 10853 10852 10851 10851 10850 10850 10850 10849 10849 10847 10844 10844 10847 10848 10848 10850 10853 10854 10856 10858 10860 10863 10865 10865 10865 10865 10866 10871 10875 10877 10879 10882 10884 10883 10883 10883 10885 10888 10890 10891 10893 10896 10899 10902 10903 10904 10906 10908 10910 10911 10912 10913 10914 10915 10916
10914 10910 10907 10905 10902 10899 10897 10894 10892 10890 10888 10885 10882 10880 10879 10877 10875 10873 10870 10868 10867 10865 10863 10860 10858 10857 10855 10852 10849 10848 10845 10843 10843 10844 10844 10844 10845 10843 10841 10839 10837 10837 10839 10841 10842 10844 10846 10847 10849 10851 10854 10856 10857 10857 10857 10856 10860 10864 10867 10871 10873 10875 10878 10879 10878 10878 10881 10884 10885 10887 10889 10892 10895 10897 10900 10901 10902 10904 10906 10908 10909 10910 10912 10914 10915
10911 10907 10904 10901 10898 10895 10892 10890 10888 10885 10882 10879 10877 10874 10871 10869 10867 10865 10863 10861 10859 10858 10856 10853 10850 10849 10848 10845 10842 10841 10838 10836 10835 10835 10835 10836 10837 10837 10835 10833 10831 10829 10830 10833 10837 10839 10839 10839 10841 10843 10845 10846 10848 10849 10849 10850 10855 10857 10859 10864 10867 10868 10869 10872 10872 10873 10877 10880 10881 10883 10885 10887 10890 10892 10895 10897 10898 10901 10902 10904 10906 10907 10909 10911 10913
10909 10905 10902 10898 10895 10892 10890 10887 10884 10881 10877 10874 10871 10869 10866 10863 10860 10858 10855 10853 10851 10849 10848 10846 10842 10839 10838 10837 10834 10833 10831 10829 10827 10826 10826 10826 10827 10829 10828 10827 10825 10823 10822 10824 10829 10832 10831 10831 10833 10833 10834 10837 10840 10842 10843 10846 10850 10852 10852 10856 10859 10860 10862 10866 10868 10869 10873 10875 10876 10879 10880 10882 10885 10888 10891 10893 10895 10897 10899 10901 10903 10904 10906 10909 10910
10906 10903 10900 10896 10892 10889 10886 10882 10879 10876 10873 10869 10866 10863 10860 10856 10854 10851 10848 10844 10842 10839 10838 10836 10834 10830 10828 10827 10825 10824 10822 10820 10819 10817 10817 10816 10816 10818 10820 10820 10818 10817 10815 10815 10818 10820 10823 10824 10824 10823 10826 10829 10832 10834 10836 10840 10843 10844 10844 10846 10851 10854 10856 10860 10863 10864 10868 10871 10872 10874 10875 10879 10882 10884 10887 10889 10891 10893 10896 10899 10900 10901 10903 10905 10907
10903 10900 10896 10892 10889 10885 10881 10878 10874 10870 10867 10864 10860 10857 10854 10851 10848 10845 10841 10837 10833 10831 10828 10825 10823 10820 10818 10817 10816 10814 10812 10811 10810 10809 10808 10807 10806 10808 10811 10811 10811 10810 10808 10807 10808 10809 10812 10815 10815 10815 10819 10822 10823 10824 10828 10831 10833 10835 10837 10840 10846 10849 10850 10854 10856 10859 10863 10866 10868 10870 10871 10875 10877 10879 10882 10885 10888 10890 10893 10895 10897 10898 10900 10902 10904
10898 10894 10891 10888 10884 10880 10877 10873 10869 10865 10862 10859 10856 10852 10849 10846 10843 10839 10835 10830 10826 10823 10820 10817 10813 10810 10808 10807 10806 10805 10803 10802 10801 10800 10798 10797 10796 10797 10799 10800 10802 10802 10799 10797 10798 10799 10802 10806 10807 10807 10809 10813 10815 10815 10818 10822 10824 10826 10830 10834 10839 10842 10844 10847 10851 10854 10857 10860 10863 10865 10867 10870 10872 10874 10877 10880 10884 10887 10889 10892 10893 10895 10897 10898 10899
10891 10887 10884 10882 10879 10875 10871 10867 10864 10861 10857 10854 10852 10849 10845 10842 10838 10834 10830 10826 10821 10816 10812 10808 10805 10801 10797 10795 10794 10794 10794 10792 10791 10791 10789 10787 10786 10786 10787 10788 10789 10790 10789 10788 10789 10790 10792 10795 10796 10796 10798 10802 10807 10808 10809 10813 10817 10819 10823 10828 10832 10836 10840 10842 10846 10850 10853 10856 10858 10860 10863 10867 10868 10870 10873 10875 10879 10883 10886 10888 10890 10892 10893 10894 10895
10884 10880 10877 10875 10873 10869 10865 10862 10860 10856 10853 10850 10847 10844 10840 10836 10833 10829 10825 10822 10817 10812 10806 10802 10798 10793 10788 10785 10782 10782 10781 10781 10781 10780 10779 10777 10775 10774 10775 10776 10778 10779 10780 10780 10780 10781 10783 10784 10783 10784 10788 10792 10797 10801 10803 10807 10811 10814 10817 10822 10826 10831 10835 10837 10840 10845 10849 10853 10855 10857 10860 10863 10865 10867 10870 10872 10876 10879 10882 10885 10887 10889 10890 10891 10892
10877 10873 10871 10869 10867 10864 10860 10857 10854 10851 10847 10844 10841 10838 10834 10830 10827 10823 10819 10815 10812 10807 10802 10796 10791 10786 10781 10777 10773 10770 10769 10768 10769 10768 10767 10766 10765 10764 10764 10764 10766 10768 10770 10771 10771 10771 10773 10774 10773 10774 10780 10785 10789 10794 10797 10801 10806 10809 10812 10816 10820 10825 10829 10832 10836 10841 10845 10849 10851 10853 10855 10858 10861 10864 10867 10869 10872 10875 10878 10881 10883 10885 10887 10888 10889
10870 10867 10864 10862 10861 10857 10853 10849 10846 10843 10840 10837 10833 10830 10827 10823 10819 10816 10812 10808 10804 10799 10794 10790 10784 10779 10774 10769 10764 10761 10758 10756 10755 10755 10755 10754 10754 10754 10753 10753 10754 10757 10760 10761 10761 10760 10762 10764 10765 10767 10772 10777 10781 10786 10790 10794 10799 10803 10807 10811 10815 10819 10824 10827 10832 10835 10839 10843 10846 10848 10851 10853 10856 10860 10863 10865 10868 10871 10874 10876 10879 10882 10883 10885 10885
10865 10861 10857 10855 10852 10848 10843 10840 10837 10835 10832 10828 10824 10821 10818 10814 10810 10806 10802 10799 10795 10790 10785 10780 10775 10771 10766 10760 10756 10752 10749 10746 10744 10743 10743 10742 10742 10742 10742 10742 10743 10746 10749 10751 10751 10751 10752 10755 10757 10759 10763 10769 10775 10780 10783 10787 10791 10795 10800 10804 10808 10813 10818 10822 10826 10829 10833 10838 10841 10844 10846 10848 10850 10855 10859 10861 10863 10866 10869 10872 10875 10878 10879 10881 10881
10859 10854 10850 10847 10843 10840 10836 10832 10828 10825 10822 10819 10815 10812 10808 10804 10800 10796 10792 10789 10785 10780 10774 10769 10765 10761 10756 10751 10746 10743 10740 10737 10734 10732 10731 10730 10730 10730 10731 10731 10732 10734 10738 10741 10742 10742 10743 10746 10748 10750 10755 10761 10767 10772 10776 10780 10783 10787 10792 10797 10802 10807 10812 10816 10821 10824 10828 10833 10836 10839 10842 10844 10846 10849 10853 10856 10858 10860 10864 10867 10871 10873 10875 10877 10877
10852 10848 10844 10840 10837 10834 10830 10827 10822 10818 10815 10812 10807 10803 10799 10795 10790 10786 10782 10778 10774 10769 10764 10758 10753 10749 10745 10740 10736 10734 10731 10728 10725 10723 10721 10719 10719 10719 10720 10721 10722 10723 10727 10730 10732 10733 10735 10737 10739 10742 10747 10753 10758 10763 10767 10772 10776 10781 10787 10792 10797 10801 10806 10811 10815 10819 10823 10828 10831 10834 10837 10839 10842 10845 10848 10851 10854 10856 10860 10863 10866 10869 10871 10873 10874
10846 10843 10840 10837 10834 10830 10825 10822 10818 10813 10808 10805 10800 10796 10791 10786 10782 10777 10773 10769 10765 10759 10753 10747 10742 10737 10733 10729 10726 10724 10722 10719 10716 10714 10711 10710 10709 10708 10709 10710 10711 10713 10717 10720 10723 10725 10727 10729 10731 10735 10739 10744 10749 10753 10758 10763 10768 10774 10781 10787 10791 10796 10801 10806 10810 10814 10819 10823 10826 10829 10832 10835 10838 10842 10845 10848 10850 10853 10856 10859 10862 10865 10867 10868 10870
10841 10839 10836 10834 10831 10826 10822 10817 10812 10807 10802 10798 10794 10790 10784 10779 10775 10770 10765 10760 10756 10750 10744 10738 10732 10726 10721 10718 10715 10714 10712 10710 10708 10705 10703 10701 10700 10699 10700 10701 10702 10704 10708 10711 10714 10716 10719 10721 10724 10728 10732 10736 10740 10744 10750 10755 10761 10767 10774 10780 10785 10790 10795 10800 10805 10809 10814 10819 10822 10824 10827 10831 10835 10839 10841 10844 10847 10851 10854 10856 10859 10861 10863 10865 10867
10837 10834 10832 10830 10827 10822 10818 10813 10807 10802 10797 10793 10788 10784 10778 10773 10768 10762 10757 10752 10747 10742 10736 10729 10723 10717 10711 10707 10705 10704 10702 10700 10699 10697 10694 10692 10692 10691 10691 10692 10693 10696 10699 10702 10705 10708 10711 10714 10717 10721 10725 10728 10732 10737 10742 10747 10754 10760 10766 10772 10778 10784 10789 10795 10799 10803 10809 10814 10818 10821 10823 10827 10831 10834 10837 10841 10844 10848 10851 10853 10855 10857 10859 10861 10864
10832 10830 10828 10826 10822 10817 10813 10808 10801 10796 10791 10787 10783 10777 10772 10766 10761 10755 10749 10744 10739 10733 10728 10721 10715 10708 10702 10697 10695 10694 10693 10691 10690 10688 10686 10684 10683 10683 10684 10684 10686 10688 10692 10695 10697 10700 10703 10707 10711 10714 10718 10722 10725 10729 10734 10740 10746 10752 10759 10765 10772 10778 10783 10788 10793 10798 10803 10809 10814 10817 10820 10822 10826 10829 10833 10837 10841 10844 10847 10849 10851 10853 10855 10858 10861
10827 10825 10822 10820 10816 10810 10806 10800 10794 10789 10785 10781 10776 10770 10764 10758 10753 10747 10741 10735 10731 10725 10719 10714 10707 10701 10694 10689 10686 10686 10684 10683 10682 10681 10679 10677 10675 10675 10676 10678 10679 10682 10685 10687 10689 10692 10696 10701 10705 10708 10711 10715 10719 10722 10727 10733 10738 10744 10751 10758 10764 10770 10776 10782 10787 10792 10797 10803 10808 10812 10815 10818 10821 10825 10829 10833 10837 10840 10843 10845 10847 10848 10850 10854 10858
10821 10818 10815 10812 10807 10802 10798 10792 10786 10782 10778 10772 10766 10760 10755 10749 10744 10738 10733 10727 10722 10716 10711 10705 10699 10693 10687 10682 10678 10677 10677 10675 10674 10673 10672 10670 10669 10668 10669 10671 10672 10675 10677 10680 10682 10685 10689 10693 10698 10702 10706 10710 10713 10716 10720 10725 10731 10737 10743 10748 10754 10762 10769 10775 10781 10786 10791 10796 10801 10806 10810 10813 10816 10820 10823 10827 10831 10835 10837 10840 10843 10844 10847 10851 10855
10816 10812 10808 10803 10798 10793 10790 10785 10780 10777 10772 10764 10758 10753 10747 10742 10736 10730 10724 10718 10712 10707 10702 10696 10691 10685 10680 10675 10671 10670 10670 10668 10667 10666 10665 10664 10663 10662 10663 10665 10666 10668 10671 10674 10677 10680 10683 10687 10692 10697 10701 10704 10707 10710 10714 10720 10725 10730 10734 10739 10746 10753 10762 10770 10776 10781 10785 10789 10794 10799 10803 10807 10810 10813 10817 10821 10825 10829 10832 10836 10839 10840 10843 10847 10851
10809 10806 10800 10794 10788 10784 10781 10778 10773 10769 10763 10757 10751 10746 10741 10735 10729 10722 10716 10710 10704 10699 10694 10689 10683 10678 10674 10669 10664 10662 10663 10662 10661 10660 10659 10658 10657 10657 10657 10658 10660 10662 10665 10669 10672 10675 10678 10683 10687 10692 10696 10699 10702 10706 10710 10716 10721 10724 10728 10733 10740 10748 10757 10765 10769 10773 10777 10781 10786 10791 10796 10799 10803 10807 10810 10815 10820 10824 10828 10831 10834 10836 10839 10844 10848
10800 10797 10792 10786 10781 10777 10772 10768 10764 10759 10755 10750 10745 10739 10733 10727 10721 10715 10708 10701 10696 10690 10686 10682 10676 10670 10667 10663 10658 10656 10656 10656 10655 10654 10653 10652 10652 10652 10652 10653 10654 10656 10659 10664 10667 10670 10675 10679 10683 10688 10691 10694 10698 10702 10707 10712 10715 10718 10723 10728 10736 10745 10752 10756 10760 10765 10770 10774 10778 10783 10788 10792 10796 10800 10805 10810 10815 10820 10823 10826 10829 10832 10835 10839 10842
10790 10788 10784 10779 10774 10770 10765 10760 10756 10752 10747 10743 10738 10732 10726 10721 10715 10708 10700 10693 10688 10683 10678 10674 10669 10664 10660 10657 10653 10651 10650 10650 10649 10648 10647 10647 10647 10647 10648 10648 10649 10651 10655 10659 10663 10667 10671 10674 10679 10683 10686 10690 10694 10698 10703 10707 10709 10712 10716 10722 10731 10739 10743 10747 10752 10757 10762 10766 10770 10775 10780 10785 10790 10795 10800 10805 10809 10814 10817 10821 10825 10828 10830 10833 10835
10781 10777 10774 10770 10766 10762 10757 10753 10749 10744 10740 10736 10732 10727 10721 10714 10708 10701 10694 10686 10681 10676 10671 10667 10663 10658 10654 10651 10649 10646 10645 10644 10643 10643 10642 10642 10642 10643 10644 10644 10644 10646 10650 10655 10658 10663 10667 10671 10675 10678 10682 10686 10690 10693 10698 10701 10703 10707 10712 10718 10725 10731 10736 10742 10747 10750 10755 10759 10763 10768 10774 10779 10784 10789 10794 10798 10802 10807 10811 10815 10820 10823 10825 10827 10830
10771 10767 10763 10760 10757 10753 10749 10744 10740 10735 10731 10728 10725 10720 10714 10707 10699 10693 10686 10680 10674 10669 10664 10660 10657 10652 10648 10645 10643 10641 10640 10638 10637 10637 10636 10636 10637 10638 10640 10640 10640 10642 10646 10651 10655 10659 10663 10668 10671 10674 10678 10682 10685 10689 10693 10696 10698 10702 10707 10713 10719 10724 10730 10736 10740 10744 10749 10754 10758 10764 10769 10773 10778 10783 10787 10791 10796 10802 10806 10809 10813 10816 10818 10822 10825
10765 10760 10755 10752 10749 10746 10741 10736 10731 10727 10722 10718 10714 10710 10705 10699 10691 10684 10677 10671 10667 10662 10657 10653 10650 10646 10642 10639 10637 10635 10634 10632 10631 10631 10631 10631 10632 10634 10635 10636 10636 10637 10642 10647 10651 10656 10660 10664 10668 10671 10674 10677 10680 10684 10688 10691 10693 10697 10702 10708 10713 10717 10722 10727 10732 10737 10743 10748 10753 10758 10762 10766 10771 10776 10781 10785 10791 10795 10798 10802 10806 10809 10813 10817 10819
10760 10754 10749 10745 10742 10739 10734 10729 10725 10719 10713 10708 10703 10699 10694 10689 10683 10676 10669 10663 10659 10655 10652 10647 10643 10640 10636 10633 10631 10629 10628 10626 10625 10625 10625 10626 10627 10628 10630 10631 10632 10633 10637 10643 10647 10652 10657 10661 10664 10667 10670 10672 10675 10679 10682 10686 10689 10692 10697 10703 10706 10710 10716 10722 10727 10732 10737 10741 10746 10751 10755 10760 10764 10769 10774 10780 10786 10788 10790 10796 10801 10804 10807 10811 10813
10756 10750 10743 10738 10735 10733 10729 10723 10718 10711 10705 10700 10696 10691 10686 10681 10676 10669 10662 10656 10651 10647 10645 10641 10636 10634 10630 10627 10626 10624 10621 10620 10619 10619 10619 10620 10621 10623 10625 10627 10628 10629 10633 10638 10643 10648 10652 10656 10659 10663 10665 10668 10670 10674 10677 10682 10685 10689 10694 10698 10700 10704 10712 10718 10722 10725 10729 10735 10740 10744 10749 10752 10757 10763 10771 10776 10780 10781 10784 10790 10795 10797 10801 10804 10806
10750 10745 10739 10733 10730 10728 10723 10717 10711 10705 10699 10694 10689 10684 10678 10673 10668 10661 10655 10649 10644 10640 10637 10634 10630 10627 10624 10621 10619 10618 10616 10614 10613 10613 10613 10614 10615 10617 10620 10623 10625 10626 10628 10632 10637 10642 10647 10651 10655 10658 10660 10662 10666 10670 10673 10677 10682 10685 10688 10690 10694 10700 10707 10712 10715 10718 10722 10729 10734 10738 10742 10747 10754 10761 10767 10770 10772 10774 10777 10783 10788 10791 10794 10797 10800
10743 10739 10733 10727 10723 10720 10714 10708 10702 10696 10691 10686 10682 10675 10668 10662 10658 10653 10647 10642 10637 10633 10629 10626 10622 10619 10617 10615 10613 10612 10610 10608 10607 10606 10606 10608 10609 10611 10615 10618 10620 10621 10623 10626 10631 10636 10641 10646 10650 10653 10655 10658 10662 10666 10669 10673 10677 10680 10682 10685 10690 10696 10700 10704 10708 10712 10717 10723 10727 10732 10738 10744 10750 10755 10758 10761 10764 10767 10771 10776 10781 10785 10788 10791 10795
10734 10730 10725 10718 10714 10710 10704 10698 10692 10686 10681 10678 10674 10667 10660 10654 10649 10645 10639 10635 10631 10627 10623 10619 10615 10612 10610 10608 10606 10604 10603 10602 10601 10600 10600 10601 10603 10605 10609 10612 10615 10616 10618 10620 10624 10630 10636 10641 10645 10648 10650 10653 10657 10661 10664 10668 10672 10675 10678 10681 10685 10690 10694 10699 10704 10708 10712 10716 10720 10727 10732 10737 10742 10746 10749 10753 10757 10760 10764 10769 10774 10778 10782 10785 10789
10724 10720 10715 10709 10704 10699 10693 10687 10682 10676 10671 10668 10666 10660 10653 10647 10642 10637 10631 10627 10625 10621 10617 10612 10608 10605 10603 10601 10600 10598 10596 10595 10594 10594 10594 10594 10596 10599 10602 10606 10609 10611 10613 10615 10619 10624 10631 10635 10639 10642 10645 10648 10652 10656 10659 10662 10666 10670 10673 10676 10679 10684 10689 10694 10699 10704 10707 10710 10714 10720 10725 10729 10734 10738 10742 10746 10750 10754 10759 10763 10767 10771 10775 10779 10782
10715 10711 10706 10700 10695 10689 10682 10676 10671 10666 10661 10659 10657 10651 10645 10639 10634 10629 10624 10619 10617 10615 10610 10605 10602 10598 10596 10595 10593 10591 10590 10589 10587 10587 10587 10588 10589 10592 10595 10599 10603 10606 10608 10611 10613 10618 10624 10630 10633 10637 10640 10643 10646 10650 10654 10657 10660 10664 10668 10670 10673 10677 10682 10687 10692 10698 10702 10704 10708 10713 10719 10723 10727 10731 10735 10739 10744 10748 10752 10756 10760 10764 10768 10772 10774
10703 10700 10695 10690 10685 10680 10673 10667 10661 10655 10652 10649 10646 10642 10637 10631 10625 10620 10616 10611 10609 10608 10604 10599 10595 10592 10589 10588 10586 10583 10583 10582 10581 10581 10581 10582 10582 10585 10587 10591 10596 10600 10603 10606 10608 10612 10618 10624 10628 10631 10635 10638 10641 10644 10648 10652 10655 10658 10662 10665 10667 10670 10675 10680 10685 10689 10694 10698 10701 10707 10712 10716 10720 10724 10728 10732 10737 10741 10745 10749 10753 10757 10761 10763 10765
10691 10689 10685 10680 10675 10670 10665 10659 10652 10646 10643 10640 10636 10631 10628 10623 10617 10612 10607 10602 10600 10599 10596 10592 10589 10585 10582 10580 10578 10576 10576 10576 10575 10574 10575 10576 10577 10578 10581 10584 10589 10594 10598 10601 10604 10607 10612 10617 10622 10626 10629 10632 10635 10638 10642 10646 10650 10653 10656 10659 10662 10664 10668 10673 10677 10682 10686 10691 10694 10699 10704 10708 10712 10717 10721 10725 10730 10733 10737 10741 10745 10748 10751 10754 10755
10681 10678 10674 10669 10664 10659 10655 10650 10642 10636 10633 10630 10625 10620 10618 10613 10608 10603 10599 10594 10591 10590 10588 10585 10581 10578 10575 10573 10571 10569 10569 10569 10569 10568 10569 10570 10571 10572 10575 10578 10582 10587 10591 10595 10598 10602 10606 10611 10616 10620 10623 10627 10630 10633 10636 10640 10643 10647 10650 10653 10656 10659 10662 10666 10670 10675 10680 10684 10688 10692 10697 10701 10705 10709 10713 10718 10722 10725 10729 10733 10736 10739 10741 10743 10744
10673 10669 10664 10660 10655 10649 10644 10639 10632 10625 10622 10619 10614 10610 10607 10604 10599 10595 10591 10587 10584 10581 10580 10578 10574 10570 10568 10566 10565 10563 10562 10563 10563 10563 10563 10564 10566 10567 10569 10572 10575 10580 10585 10589 10592 10596 10600 10605 10610 10615 10618 10621 10624 10627 10630 10634 10637 10641 10644 10647 10650 10653 10656 10659 10664 10668 10673 10677 10681 10686 10690 10694 10698 10702 10705 10709 10713 10717 10721 10724 10727 10729 10731 10732 10734
10664 10660 10656 10651 10647 10641 10636 10630 10623 10616 10612 10609 10605 10601 10598 10595 10591 10587 10583 10579 10576 10574 10572 10570 10568 10564 10561 10560 10559 10557 10556 10556 10557 10557 10557 10559 10561 10562 10564 10567 10569 10573 10578 10582 10586 10591 10595 10600 10604 10609 10613 10615 10618 10621 10624 10628 10631 10634 10637 10640 10643 10647 10649 10653 10657 10661 10666 10670 10674 10678 10682 10686 10690 10693 10697 10700 10704 10708 10711 10714 10717 10719 10721 10722 10724
10653 10650 10646 10642 10637 10633 10628 10622 10615 10608 10603 10600 10597 10593 10590 10587 10584 10580 10576 10572 10569 10566 10564 10563 10561 10558 10555 10554 10553 10551 10551 10551 10551 10552 10552 10553 10555 10557 10559 10562 10564 10567 10571 10576 10581 10585 10590 10595 10599 10603 10607 10610 10612 10615 10618 10621 10625 10628 10631 10633 10636 10639 10643 10646 10649 10653 10657 10661 10665 10670 10674 10677 10681 10684 10688 10691 10695 10698 10701 10704 10707 10709 10711 10713 10714
10645 10641 10636 10631 10627 10623 10618 10613 10607 10600 10593 10590 10588 10583 10580 10579 10576 10572 10569 10566 10564 10561 10558 10556 10555 10553 10549 10547 10547 10546 10545 10545 10546 10546 10547 10548 10549 10551 10554 10557 10559 10562 10565 10570 10575 10579 10584 10589 10593 10597 10601 10604 10606 10608 10611 10614 10617 10621 10624 10627 10629 10632 10635 10639 10642 10645 10649 10653 10657 10661 10664 10668 10671 10675 10678 10682 10685 10688 10691 10694 10696 10699 10701 10703 10704